Regional Weather Roundup
Issued by NWS

Home | Current Version | Previous Version | Text Only | Print | Product List | Glossary Off
Versions: 1 2 3 4 5 6 7 8 9 10 11 12 13 14 15 16 17 18 19 20 21 22 23 24 25 26 27 28 29 30 31 32 33 34 35 36 37 38 39 40 41 42 43 44 45 46 47 48 49 50

000
ASUS45 KCYS 111710
RWRWY

WYOMING REGIONAL WEATHER ROUNDUP
NATIONAL WEATHER SERVICE CHEYENNE WY
1000 AM MST MON DEC 11 2017

NOTE:  "FAIR" INDICATES FEW OR NO CLOUDS BELOW 12,000 FEET
WITH NO SIGNIFICANT WEATHER AND/OR OBSTRUCTIONS TO VISIBILITY.

WYZ001-111800-
YELLOWSTONE NATIONAL PARK

CITY           SKY/WX    TMP DP  RH WIND       PRES   REMARKS
LK YELLOWSTONE   N/A     17  16  95 CALM      30.60R
W YELLOWSTONE  NOT AVBL

$$
WYZ002>013-054>058-071-098>099-111800-
NORTHERN WYOMING

CITY           SKY/WX    TMP DP  RH WIND       PRES   REMARKS
JACKSON        FAIR      21  14  74 CALM      30.63R
CODY           FAIR      42  11  28 S3        30.45
GREYBULL       FAIR      19  13  77 SE3       30.47S
WORLAND        FAIR      26  19  74 NE3       30.46R
SHERIDAN       FAIR      45  17  32 NW7       30.41R
BUFFALO        FAIR      43  11  27 N17G23    30.39R
GILLETTE       FAIR      41  17  38 NW17      30.37R
HULETT         FAIR      37  19  48 NW12G17   30.37R WCI  30
NEWCASTLE      FAIR      39  14  35 NW26G32   30.33R WCI  28

$$
WYZ014>020-022>026-101>103-111800-
CENTRAL WYOMING

CITY           SKY/WX    TMP DP  RH WIND       PRES   REMARKS
BIG PINEY      FAIR      38  11  32 CALM      30.51R
PINEDALE       FAIR      41  12  30 NW15      30.50S
DUBOIS         FAIR      45  21  39 W24G35    30.46R
LANDER         FAIR      23  14  68 N5        30.46R WCI  17
RIVERTON       FAIR      23  17  78 E3        30.46R
CASPER         FAIR      37  14  38 SW17      30.42R WCI  27
DOUGLAS        FAIR      38  19  46 NW7       30.41R WCI  33

$$
WYZ021-027>030-104>119-111800-
SOUTHERN WYOMING

CITY           SKY/WX    TMP DP  RH WIND       PRES   REMARKS
EVANSTON       FAIR      30   9  41 CALM      30.57R
FORT BRIDGER   FAIR      41   2  20 W12       30.57S
ROCK SPRINGS   FAIR      37   2  22 W8        30.52R WCI  31
DIXON          FAIR      18   8  63 S3        30.58R
RAWLINS        FAIR      35   8  32 W13G21    30.49F WCI  26
SARATOGA       FAIR      27  12  54 SE3       30.51S
LARAMIE        FAIR      35   7  31 E3        30.41R
CHEYENNE       FAIR      49   1  14 NW21G30   30.36R
TORRINGTON     FAIR      45  15  30 N15G25    30.36R
PINE BLUFFS    FAIR      45   5  19 NW23G32   30.37R

$$



USA.gov is the U.S. government's official web portal to all federal, state and local government web resources and services.